Vorticity
7 7 10 10 5 4 5 7 6 7 8 7 8 8 8 8 10 10 10 10 9 4 7 8 9 6 7 7 9 8 2 5 -0 5 4 15 6 5 3 4 2 2 2 2 4
6 6 7 8 9 10 6 4 6 7 7 7 8 8 9 8 8 10 10 11 13 10 8 8 9 8 8 7 6 8 4 10 2 12 1 11 11 6 6 6 3 3 5 6 5
4 6 7 7 8 6 9 9 6 5 6 7 7 8 8 10 9 9 11 12 9 11 9 6 7 7 9 10 1 1 2 7 0 14 7 4 11 7 8 4 5 6 7 4 4
1 3 5 9 10 8 6 6 8 8 6 5 7 7 8 7 13 6 16 19 14 10 10 7 8 10 9 7 9 3 8 -8 19 -8 8 9 9 9 7 6 6 5 2 3 3
3 3 3 7 9 11 10 5 4 6 8 6 6 7 8 8 8 8 3 -1 1 9 19 12 9 10 10 16 5 8 -1 15 -1 -2 10 5 6 5 6 7 6 3 4 4 2
7 7 5 6 8 8 10 13 5 6 6 7 6 6 6 7 13 8 8 8 7 10 10 17 11 13 16 -4 23 6 28 -3 10 14 0 4 5 5 9 1 4 5 4 3 1
6 8 8 7 9 8 7 9 14 6 4 6 6 6 6 3 5 7 4 6 11 9 8 11 12 4 7 20 -4 11 3 24 3 -1 9 20 7 4 7 1 4 5 6 8 8
11 10 9 9 7 8 8 7 11 11 8 6 5 4 4 6 6 6 8 10 7 7 11 11 13 5 -5 7 2 20 2 -4 24 18 8 3 -5 23 26 16 10 11 12 7 9
6 7 11 11 10 9 7 8 12 7 8 8 7 6 15 8 9 7 9 8 7 8 8 12 12 6 11 -4 7 17 0 18 -10 10 9 8 10 34 10 -0 7 18 12 10 10
9 8 8 8 14 12 11 7 15 18 8 5 7 11 1 -9 -4 1 17 16 8 13 12 12 9 7 5 2 -0 -11 9 -9 17 28 -1 3 7 -3 3 15 14 13 13 11 10
11 10 12 15 11 21 14 12 10 12 10 1 -11 52 -24 -23 4 18 21 18 7 13 9 9 6 -2 3 9 -24 -15 25 21 2 3 14 19 11 19 4 2 6 9 9 10 11
28 28 27 23 6 9 25 14 10 -14 10 20 20 9 -16 -9 -11 -13 -6 1 14 8 16 5 8 9 11 8 4 -9 5 12 17 20 4 1 9 12 -1 5 7 8 9 10 8
13 9 10 19 10 2 2 22 21 -3 17 7 6 -0 17 8 3 1 5 10 4 15 13 10 -5 30 8 10 8 4 -14 3 -14 21 8 -2 26 10 7 3 6 5 6 6 6
7 6 8 -2 24 14 -1 -1 34 9 -14 26 11 28 8 1 2 4 3 6 11 8 17 28 28 -12 43 15 11 10 10 -0 3 4 -1 22 -2 27 31 13 5 7 8 9 7
21 25 22 18 10 38 11 11 36 11 11 21 26 20 24 37 -3 13 6 3 3 6 4 -5 22 19 -26 20 11 13 25 -3 -3 12 -6 10 -1 36 10 -0 15 23 15 9 9
17 17 14 26 32 2 19 7 17 12 8 7 19 21 16 11 18 1 37 14 15 3 8 15 0 0 34 2 33 17 26 26 18 10 17 17 -15 19 20 9 11 10 9 6 17
15 18 12 16 26 16 37 11 15 -15 19 -1 8 8 18 16 4 14 13 10 -26 10 15 22 5 3 8 20 21 2 21 4 9 9 1 29 15 -42 19 6 16 17 18 21 29
12 15 16 15 12 30 9 39 -13 77 -13 21 4 11 6 14 17 5 23 10 3 2 55 -10 56 7 -1 3 -5 -4 -10 -7 5 9 12 15 19 8 45 -13 9 11 13 16 16
12 16 15 21 12 21 2 21 41 -29 63 -15 27 9 -8 3 3 17 9 18 17 -4 -42 24 -21 57 17 3 4 31 -5 -27 1 11 2 8 30 -5 9 24 2 8 7 13 16
9 13 12 15 22 11 31 -5 4 18 6 15 7 4 11 18 -0 22 4 49 16 18 -4 -6 12 25 11 15 11 -21 4 10 5 5 8 17 14 -31 20 7 10 9 9 10 20
12 11 18 19 21 10 2 12 12 -7 23 3 18 5 -2 7 6 -7 -2 -19 46 19 10 -15 -13 41 8 16 15 4 15 -15 25 -12 8 7 21 24 -6 24 9 12 10 16 23
13 7 10 8 25 16 6 8 10 20 42 19 4 24 15 17 12 17 5 0 19 39 36 5 12 12 -1 8 3 17 9 5 -28 24 -2 6 15 26 17 16 7 15 14 18 15
10 11 13 20 17 10 5 13 2 21 21 30 -14 18 12 15 -2 27 18 12 22 27 28 6 17 -5 45 10 23 4 6 15 -25 0 11 -19 -2 10 21 1 9 13 17 14 8
4 10 4 1 51 9 15 22 4 52 5 12 8 28 5 -1 2 -8 2 2 10 -7 5 64 6 -25 -19 17 19 -4 5 1 -6 -6 -15 -8 14 -7 14 10 12 10 8 7 6
13 14 12 -13 -7 14 26 -20 17 8 26 14 3 18 5 2 8 8 -3 0 5 47 -0 5 8 17 -3 -7 29 28 22 6 5 -24 6 3 9 24 14 17 7 7 12 8 7
13 13 21 15 12 25 20 23 12 11 -4 25 -9 11 8 7 5 -1 -5 14 -19 52 1 4 36 0 -6 13 16 17 24 36 15 8 4 2 5 -31 -2 7 -0 6 8 5 8
14 8 14 1 23 6 31 9 1 42 35 6 -15 6 22 8 9 7 3 -8 42 26 13 9 -12 -2 10 1 3 20 9 15 28 23 16 5 -10 0 33 6 -4 6 12 -0 10
Height
3076 3073 3071 3069 3067 3065 3063 3062 3061 3060 3059 3058 3056 3055 3054 3053 3053 3053 3054 3055 3055 3055 3056 3058 3060 3063 3066 3067 3070 3072 3074 3074 3075 3078 3080 3081 3082 3084 3087 3089 3091 3093 3096 3099 3100
3072 3070 3068 3066 3063 3061 3059 3057 3057 3055 3054 3054 3053 3052 3051 3050 3049 3049 3050 3050 3051 3052 3052 3054 3056 3059 3061 3063 3066 3067 3068 3070 3072 3075 3077 3078 3078 3081 3084 3085 3087 3090 3093 3096 3097
3066 3065 3063 3061 3060 3057 3055 3053 3052 3050 3049 3049 3048 3048 3047 3046 3046 3045 3045 3046 3047 3049 3049 3050 3052 3055 3057 3059 3061 3062 3064 3067 3069 3072 3073 3075 3075 3077 3079 3081 3084 3087 3090 3092 3094
3060 3058 3057 3055 3054 3053 3051 3049 3046 3046 3044 3043 3043 3043 3043 3043 3045 3041 3041 3041 3043 3045 3046 3046 3048 3050 3052 3054 3056 3058 3060 3062 3065 3068 3069 3070 3071 3073 3075 3078 3080 3083 3085 3087 3090
3054 3051 3049 3047 3047 3046 3045 3044 3041 3040 3039 3038 3038 3038 3038 3039 3040 3038 3038 3038 3039 3041 3042 3042 3044 3046 3048 3051 3053 3054 3056 3059 3062 3063 3065 3066 3067 3069 3070 3072 3075 3077 3080 3083 3085
3047 3045 3042 3040 3039 3037 3037 3037 3036 3035 3033 3032 3032 3033 3033 3035 3034 3034 3034 3034 3035 3036 3038 3039 3040 3043 3045 3048 3050 3051 3053 3056 3057 3058 3060 3062 3063 3064 3065 3068 3070 3072 3075 3078 3080
3038 3036 3034 3032 3030 3028 3028 3027 3028 3028 3027 3025 3025 3025 3026 3032 3029 3030 3030 3030 3031 3032 3034 3036 3038 3040 3042 3044 3046 3048 3050 3050 3051 3054 3055 3056 3057 3054 3063 3062 3063 3067 3070 3072 3074
3029 3026 3024 3023 3021 3019 3018 3018 3018 3018 3019 3018 3018 3017 3016 3022 3023 3025 3026 3026 3027 3029 3030 3032 3034 3037 3038 3041 3042 3044 3047 3046 3046 3048 3050 3053 3047 3052 3054 3056 3058 3060 3063 3067 3069
3018 3015 3014 3013 3012 3011 3009 3009 3010 3009 3009 3010 3010 3010 3011 3014 3016 3018 3020 3021 3022 3023 3025 3026 3029 3032 3035 3037 3040 3040 3039 3040 3043 3043 3045 3046 3044 3047 3049 3051 3053 3054 3057 3060 3063
3005 3002 3001 3002 3002 3001 3000 3000 3000 2999 3000 3002 3003 3008 3007 3009 3009 3011 3011 3014 3016 3019 3020 3022 3023 3025 3028 3032 3031 3033 3035 3036 3037 3040 3040 3040 3040 3043 3043 3045 3047 3049 3051 3054 3057
2991 2991 2991 2989 2989 2990 2989 2991 2993 2991 2989 2992 2996 2997 3001 3002 3003 3005 3005 3008 3010 3012 3013 3016 3016 3012 3019 3024 3029 3031 3034 3034 3036 3037 3037 3037 3038 3039 3039 3039 3041 3043 3045 3049 3053
2979 2977 2978 2979 2980 2978 2977 2979 2983 2984 2980 2982 2985 2986 2993 2995 2996 2998 3000 3003 3005 3006 3008 3010 3005 3015 3020 3024 3028 3030 3031 3032 3033 3033 3035 3033 3030 3033 3032 3034 3037 3038 3041 3044 3048
2968 2969 2967 2966 2967 2967 2968 2972 2976 2977 2973 2970 2973 2975 2983 2988 2987 2991 2994 2996 3000 3001 3002 3003 3007 3011 3014 3019 3023 3025 3027 3031 3032 3032 3031 3030 3024 3025 3026 3027 3030 3031 3035 3038 3042
2959 2959 2958 2957 2956 2958 2958 2966 2967 2970 2966 2956 2961 2961 2970 2976 2975 2984 2985 2992 2994 2996 2999 3001 3004 3006 3008 3012 3019 3020 3024 3029 3030 3032 3030 3028 3022 3016 3017 3019 3022 3025 3027 3031 3035
2949 2949 2949 2947 2946 2946 2953 2956 2958 2964 2956 2950 2950 2953 2959 2964 2968 2973 2980 2983 2986 2990 2994 2994 2997 3000 3003 3007 3014 3015 3021 3026 3028 3029 3028 3025 3025 3009 3012 3012 3014 3018 3021 3024 3029
2940 2939 2938 2937 2937 2939 2944 2949 2952 2957 2944 2943 2942 2946 2951 2955 2958 2965 2971 2978 2983 2987 2986 2991 2993 2995 2998 3005 3010 3014 3019 3024 3026 3028 3026 3017 3020 3004 3007 3008 3010 3012 3014 3018 3022
2931 2930 2928 2928 2929 2930 2934 2937 2940 2933 2940 2939 2940 2941 2944 2947 2952 2959 2963 2966 2972 2979 2979 2984 2988 2990 2995 3001 3006 3010 3015 3023 3030 3029 3018 3011 3013 2998 3001 3002 3004 3006 3009 3012 3016
2922 2921 2922 2922 2923 2924 2928 2930 2923 2922 2929 2932 2936 2939 2942 2945 2949 2952 2958 2961 2965 2969 2972 2977 2984 2983 2989 2995 2996 3004 3008 3008 3017 3019 3008 3009 3002 2991 2994 2997 3000 3002 3004 3006 3010
2915 2915 2914 2916 2916 2919 2922 2920 2913 2920 2925 2930 2930 2934 2937 2941 2945 2949 2952 2954 2957 2962 2970 2971 2976 2976 2982 2989 2996 2998 3001 3005 3005 3007 3007 2998 2992 2990 2989 2991 2996 2998 3001 3004 3007
2910 2910 2910 2911 2911 2913 2913 2912 2915 2920 2921 2926 2927 2930 2933 2936 2940 2945 2947 2948 2951 2957 2962 2967 2972 2973 2978 2985 2989 2990 2997 3003 3004 3010 3006 2993 2989 2983 2983 2987 2991 2995 2999 3001 3003
2907 2906 2906 2907 2907 2909 2908 2910 2913 2916 2921 2919 2924 2927 2930 2933 2937 2939 2942 2945 2946 2950 2958 2963 2966 2970 2975 2976 2976 2983 2986 2993 2997 2997 2995 2997 2982 2980 2983 2986 2991 2993 2996 2998 3001
2904 2902 2904 2905 2906 2905 2905 2908 2912 2912 2914 2918 2921 2925 2928 2929 2932 2935 2937 2940 2941 2945 2948 2957 2961 2963 2966 2968 2973 2977 2981 2985 2988 2990 2989 2988 2981 2978 2981 2983 2988 2991 2993 2997 3002
2901 2900 2902 2902 2901 2900 2902 2905 2908 2910 2911 2913 2917 2921 2924 2926 2930 2930 2932 2935 2937 2936 2940 2947 2953 2957 2964 2969 2967 2968 2972 2977 2982 2985 2983 2986 2981 2979 2981 2984 2986 2989 2992 2996 3000
2901 2899 2898 2897 2896 2898 2901 2900 2901 2903 2906 2910 2912 2917 2920 2920 2925 2926 2927 2929 2930 2932 2937 2941 2944 2946 2946 2948 2953 2959 2964 2971 2977 2981 2979 2977 2979 2980 2981 2983 2985 2988 2992 2996 2999
2898 2897 2896 2895 2895 2894 2896 2896 2899 2901 2904 2906 2909 2911 2916 2918 2920 2921 2923 2923 2921 2925 2930 2934 2936 2944 2947 2948 2948 2950 2954 2961 2963 2971 2974 2976 2977 2980 2980 2983 2986 2989 2991 2993 2997
2897 2896 2894 2894 2893 2892 2893 2893 2895 2899 2901 2902 2905 2907 2911 2913 2916 2918 2919 2920 2919 2920 2923 2928 2931 2939 2942 2944 2946 2948 2951 2954 2960 2963 2968 2971 2973 2977 2978 2980 2983 2986 2989 2992 2995
2896 2896 2895 2895 2893 2892 2892 2891 2892 2895 2897 2900 2903 2905 2906 2911 2913 2914 2913 2915 2915 2914 2917 2924 2929 2934 2938 2942 2944 2946 2942 2946 2949 2952 2958 2959 2966 2973 2975 2978 2980 2983 2987 2990 2993